Weather in Florence

Italy     43˚46′47″N   11˚15′56″E
temp.,
°C
wind,
m/s
gust,
m/s
humid.,
%
clouds,
%
prec.,
mm/h
press.,
hPa
HPBL,
m
2 december, wed
wed201:00+7˚ene2484100 3.9 1008254
04:00+7˚ne238299 0.8 1006260
07:00+8˚ne238499 2.3 1007192
10:00+9˚ese147655 1.1 1008428
13:00+11˚se146564 2.9 1008793
16:00+9˚n3569100 1.5 1007303
19:00+8˚nne3778100 3.8 1007583
22:00+6˚n3676100 1.1 1007449
3 december, thu
thu301:00+6˚nne2582100 2.1 1007427
04:00+6˚ne2480100 1.1 1007376
07:00+6˚nne118468 1.1 100781
10:00+7˚ne127450 0.0 1008321
13:00+10˚nw116227 0.0 1007672
16:00+9˚sw016310 0.0 1006570
19:00+8˚n00725 0.0 100622
22:00+6˚ese11780 0.0 100626
4 december, fri
fri401:00+6˚e118113 0.0 100537
04:00+5˚ese118368 0.0 100356
07:00+5˚e128384 0.0 1002145
10:00+7˚ese2773100 0.0 1001541
13:00+10˚se41172100 0.0 9991140
16:00+11˚sse51474100 0.1 9971417
19:00+10˚sse51679100 0.3 9971355
22:00+10˚sse61582100 2.8 9961227
5 december, sat
sat501:00+10˚se41580100 4.0 9951380
04:00+10˚se41288100 6.9 9941048
07:00+11˚se41284100 10.7 9931072
10:00+9˚wsw4594100 14.9 993594
13:00+8˚se3586100 33.1 994462
16:00+8˚e3579100 5.1 994449
19:00+7˚ne2387100 8.9 995219
22:00+7˚ese0085100 12.1 996236
6 december, sun
sun601:00+7˚se1184100 15.3 997283
04:00+7˚s1187100 0.0 998184
07:00+6˚sse1283100 0.0 998145
10:00+8˚ssw2373100 0.0 999349
13:00+10˚wsw375787 0.1 9991411
16:00+9˚wsw487087 1.0 9991114
19:00+8˚sse397066 0.8 1000740
22:00+7˚sse267690 0.1 1002324